Raduga

operational
NORAD ID: 19596 Int'l Des: 1988-095 Owner: UNKS Country: SU
HEOCIRCULAR

About Raduga

Description loading...

Live Position

Loading 3D Globe...

Upcoming Passes

Altitude History

Altitude vs Time

uPlot chart will show altitude changes over time

Two-Line Element Set

1 19596U 88095A 26062.53911255 -.00000293 00000-0 00000-0 0 9992
2 19596 11.6797 330.8283 0004558 205.8374 276.3240 1.00170017120599
Epoch: Mar 3, 2026 • Age: 31 hours

Current Status

Altitude 35833.4 km
Velocity 3.07 km/s
Sub-Earth Point 6.28°N, 96.8°E
Launch Date Oct 20, 1988
Age 37.3 years
Type other

Technical Details

Classification Payload
Mass 1965.00 kg
Dry Mass 1800.00 kg
Total Mass 1965.00 kg
Length 5.50 m
Diameter 2.50 m
Span 9.50 m
Shape Step Cyl + 2 Pan
Manufacturer NPOPM
Bus Type Raduga
Phase Status In Orbit
Owner/State UNKS/SU

Large Constellations

Loading constellations...